Retour au catalogue

STARLINK-32424

ActifCommunicationsVLEO
NORAD 61548·PAYLOAD·🇺🇸 United States

Lancé Oct 15, 2024 depuis Vandenberg Space Force Base

Loading…

Prochains Passages (prochaines 24 heures)

TLE

FraisSource: CelesTrak SupGP

Époque: Sep 15, 2026, 02:58 UTC

1 61548C 24184S   26258.12409722 -.00067656  00000+0 -19988-2 0  2589
2 61548  53.1576 210.8349 0001407  95.6247 330.0581 15.34425812    11

Suivez STARLINK-32424 en temps réel avec AllMySat

Download on the App Store